Regional Weather Roundup
Issued by NWS

Home | Current Version | Previous Version | Text Only | Print | Product List | Glossary Off
Versions: 1 2 3 4 5 6 7 8 9 10 11 12 13 14 15 16 17 18 19 20 21 22 23 24 25 26 27 28 29 30 31 32 33 34 35 36 37 38 39 40 41 42 43 44 45 46 47 48 49 50

328
ASUS43 KTOP 101759
RWRKS

WEATHER ROUNDUP FOR KANSAS
NATIONAL WEATHER SERVICE GOODLAND KS
1200 PM CST SAT DEC 10 2016

NOTE:  "FAIR" INDICATES FEW OR NO CLOUDS BELOW 12,000 FEET WITH NO
SIGNIFICANT WEATHER AND/OR OBSTRUCTIONS TO VISIBILITY.

KSZ001>006-013>018-027>032-041>047-101900-
NORTHWEST KANSAS

CITY           SKY/WX    TMP DP  RH WIND       PRES   REMARKS
GOODLAND       CLOUDY    31  25  78 S13       29.89F WCI  21
6HR MIN TEMP:  14; 6HR MAX TEMP:  31;

HAYS           SUNNY     35  21  56 S14       30.09F WCI  26
HILL CITY      CLOUDY    33  20  58 S14       30.04F WCI  23
6HR MIN TEMP:  16; 6HR MAX TEMP:  33;

RUSSELL        MOSUNNY   35  20  54 S18       30.09F WCI  24
6HR MIN TEMP:  21; 6HR MAX TEMP:  35;

$$

KSZ061>065-074>080-084>089-101900-
SOUTHWEST KANSAS

CITY           SKY/WX    TMP DP  RH WIND       PRES   REMARKS
DODGE CITY     CLOUDY    35  24  64 S20       30.05F WCI  24
6HR MIN TEMP:  18; 6HR MAX TEMP:  35;

GARDEN CITY    CLOUDY    34  23  64 S12G18    30.00F WCI  25
6HR MIN TEMP:  17; 6HR MAX TEMP:  34;

GREAT BEND     SUNNY     37  21  52 S21G26    30.09F WCI  26
LIBERAL        CLOUDY    37  27  65 SE10      30.02F WCI  30
$$

KSZ066>073-081>083-090>101-101900-
SOUTHEAST KANSAS

CITY           SKY/WX    TMP DP  RH WIND       PRES   REMARKS
CHANUTE        CLOUDY    39  21  48 SE16      30.29F WCI  30
6HR MIN TEMP:  30; 6HR MAX TEMP:  39;

COFFEYVILLE    CLOUDY    41  21  44 S16       30.32F
6HR MIN TEMP:  33; 6HR MAX TEMP:  42;

HUTCHINSON     CLOUDY    40  21  46 S17       30.17F WCI  31
6HR MIN TEMP:  24; 6HR MAX TEMP:  45;

MEDICINE LODGE   N/A     39  22  50 S18G30    30.13F WCI  30
NEWTON         CLOUDY    36  20  52 S15       30.20F WCI  27
PARSONS        CLOUDY    41  19  41 S10       30.32F
6HR MIN TEMP:  32; 6HR MAX TEMP:  41;

WICHITA INTL   PTSUNNY   40  21  46 S23       30.19F WCI  30
6HR MIN TEMP:  21; 6HR MAX TEMP:  40;

WICHITA JABRA  CLOUDY    38  21  50 S20       30.19F WCI  28
6HR MIN TEMP:  20; 6HR MAX TEMP:  38;

WINFIELD       CLOUDY    41  20  43 S22       30.23F
6HR MIN TEMP:  27; 6HR MAX TEMP:  41;

$$

KSZ007>012-019>026-033>040-048>060-102>105-101900-
NORTHEAST KANSAS

CITY           SKY/WX    TMP DP  RH WIND       PRES   REMARKS
CONCORDIA      CLOUDY    32  18  56 SE16      30.16F WCI  21
6HR MIN TEMP:  23; 6HR MAX TEMP:  32;

EMPORIA        CLOUDY    34  20  56 S10       30.26F WCI  26
6HR MIN TEMP:  23; 6HR MAX TEMP:  34;

LAWRENCE       CLOUDY    33  21  61 SE9       30.31F
6HR MIN TEMP:  25; 6HR MAX TEMP:  34;

MANHATTAN      CLOUDY    36  17  46 SE8       30.23F
6HR MIN TEMP:  27; 6HR MAX TEMP:  36;

OLATHE IND     CLOUDY    33  20  58 SE10      30.30F WCI  25
6HR MIN TEMP:  26; 6HR MAX TEMP:  33;

OLATHE EXE     CLOUDY    32  19  58 SE12      30.30F WCI  23
6HR MIN TEMP:  24; 6HR MAX TEMP:  32;

SALINA         CLOUDY    39  21  48 S16G22    30.18F WCI  30
6HR MIN TEMP:  24; 6HR MAX TEMP:  39;

TOPEKA BILLARD CLOUDY    35  19  52 SE9       30.30F
6HR MIN TEMP:  26; 6HR MAX TEMP:  35;

TOPEKA FORBES  CLOUDY    35  20  54 SE8       30.29F
6HR MIN TEMP:  26; 6HR MAX TEMP:  35;

$$




USA.gov is the U.S. government's official web portal to all federal, state and local government web resources and services.